SCP
0 0 0 0 0 0 0 0 0 0 0 0 0 0 0 0 0 0 0 0 0 0 0 0 0 0 0 0 0 0 0 0 0 0 0 0 0 0 0 0 0 0 0 0
0 0 0 0 0 0 0 0 0 0 0 0 0 0 0 0 0 0 0 0 0 0 0 0 0 0 0 0 0 0 0 0 0 0 0 0 0 0 0 0 0 0 0 0
0 0 0 0 0 0 0 0 0 0 0 0 0 0 0 0 0 0 0 0 0 0 0 0 0 0 0 0 0 0 0 0 0 0 0 0 0 0 0 0 0 0 0 0
0 0 0 0 0 0 0 0 0 0 0 0 0 0 0 0 0 0 0 0 0 0 0 0 0 0 0 0 0 0 0 0 0 0 0 0 0 0 0 0 0 0 0 0
0 0 0 0 0 0 0 0 0 0 0 0 0 0 0 0 0 0 0 0 0 0 0 0 0 0 0 0 0 0 0 0 0 0 0 0 0 0 0 0 0 0 0 0
0 0 0 0 0 0 0 0 0 0 0 0 0 0 0 0 0 0 0 0 0 0 0 0 0 0 0 0 0 0 0 0 0 0 0 0 0 0 0 0 0 0 0 0
0 0 0 0 0 0 0 0 0 0 0 0 0 0 0 0 0 0 0 0 0 0 0 0 0 0 0 0 0 0 0 0 0 0 0 0 0 0 0 0 0 0 0 0
0 0 0 0 0 0 0 0 0 0 0 0 0 0 0 0 0 0 0 0 0 0 0 0 0 0 0 0 0 0 0 0 0 0 0 0 0 0 0 0 0 0 0 0
0 0 0 0 0 0 0 0 0 0 0 0 0 0 0 0 0 0 0 0 0 0 0 0 0 0 0 0 0 0 0 0 0 0 0 0 0 0 0 0 0 0 0 0
0 0 0 0 0 0 0 0 0 0 0 0 0 0 0 0 0 0 0 0 0 0 0 0 0 0 0 0 0 0 0 0 0 0 0 0 0 0 0 0 0 0 0 0
0 0 0 0 0 0 0 0 0 0 0 0 0 0 0 0 0 0 0 0 0 0 0 0 0 0 0 0 0 0 0 0 0 0 0 0 0 0 0 0 0 0 0 0
0 0 0 0 0 0 0 0 0 0 0 0 0 0 0 0 0 0 0 0 0 0 0 -0 0 0 0 0 0 0 0 0 0 0 0 0 0 0 0 0 0 0 0 0
0 0 0 0 0 0 0 0 0 0 0 0 0 0 0 0 0 0 0 0 0 0 0 -0 -0 0 0 0 0 0 0 0 0 0 0 0 0 0 0 0 0 0 0 0
0 0 0 0 0 0 0 0 0 0 0 0 0 0 0 0 0 0 0 0 0 0 0 -0 -0 0 0 0 0 0 0 0 0 0 0 0 0 0 0 0 0 0 0 0
0 0 0 0 0 0 0 0 0 0 0 0 0 0 0 0 0 0 0 0 0 0 0 0 0 0 0 0 0 0 0 0 0 0 0 0 0 0 0 0 0 0 0 0
0 0 0 0 0 0 0 0 0 0 0 0 0 0 0 0 0 0 0 0 0 0 0 0 0 0 0 0 0 0 0 0 0 0 0 0 0 0 0 0 0 0 0 0
0 0 0 0 0 0 0 0 0 0 0 0 0 0 0 0 0 0 0 0 0 0 0 0 0 0 0 0 0 0 0 0 0 0 0 0 0 0 0 0 0 0 0 0
0 0 0 0 0 0 0 0 0 0 0 0 0 0 0 0 0 0 0 0 0 0 0 0 0 0 0 0 0 0 0 0 0 0 0 0 0 0 0 0 0 0 0 0
0 0 0 0 0 0 0 0 0 0 0 0 0 0 0 0 0 0 0 0 0 0 0 0 0 0 0 0 0 0 0 0 0 0 0 0 0 0 0 0 0 0 0 0
0 0 0 0 0 0 0 0 0 0 0 0 0 0 0 0 0 0 0 0 0 0 0 0 0 0 0 0 0 0 0 0 0 0 0 0 0 0 0 0 0 0 0 0
0 0 0 0 0 0 0 0 0 0 0 0 0 0 0 0 0 0 0 0 0 0 0 0 0 0 0 0 0 0 0 0 0 0 0 0 0 0 0 0 0 0 0 0
0 0 0 0 0 0 0 0 0 0 0 0 0 0 0 0 0 0 0 0 0 0 0 0 0 0 0 0 0 0 0 0 0 0 0 0 0 0 0 0 0 0 0 0
0 0 0 0 0 0 0 0 0 0 0 0 0 0 0 0 0 0 0 0 0 0 0 0 0 0 0 0 0 0 0 0 0 0 0 0 0 0 0 0 0 0 0 0
0 0 0 0 0 0 0 0 0 0 0 0 0 0 0 0 0 0 0 0 0 0 0 0 0 0 0 0 0 0 0 0 0 0 0 0 0 0 0 0 0 0 0 0
0 0 0 0 0 0 0 0 0 0 0 0 0 0 0 0 0 0 0 0 0 0 0 0 0 0 0 0 0 0 0 0 0 0 0 0 0 0 0 0 0 0 0 0
0 0 0 0 0 0 0 0 0 0 0 0 0 0 0 0 0 0 0 0 0 0 0 0 0 0 0 0 0 0 0 0 0 0 0 0 0 0 0 0 0 0 0 0
Wind_Speed
3 2 6 7 6 5 7 8 9 7 5 5 5 3 8 11 12 11 10 10 11 12 12 12 13 13 13 15 16 16 15 15 12 9 7 5 4 4 4 4 4 4 4 5
4 6 6 6 5 5 8 9 7 6 11 10 8 1 10 12 12 10 9 9 9 10 10 11 11 11 11 12 13 13 13 13 12 10 9 7 6 4 4 4 4 4 5 5
7 5 6 7 6 8 9 6 6 9 12 10 6 3 10 11 10 9 8 8 8 10 10 10 10 10 9 9 9 11 11 11 12 13 10 9 7 5 4 5 4 5 5 5
4 5 6 6 7 7 6 8 9 10 8 5 5 2 9 10 9 8 7 7 7 7 8 8 8 9 8 7 6 8 9 10 11 12 13 14 11 9 8 6 5 6 6 5
5 5 7 7 6 6 6 10 14 14 8 7 6 5 7 10 8 7 7 7 7 7 8 8 8 8 8 7 6 7 8 9 11 13 14 15 13 10 8 7 7 5 4 5
4 4 5 5 7 4 8 13 16 7 1 4 3 4 5 4 7 7 7 8 8 8 8 8 8 7 7 7 7 8 8 8 10 12 14 15 17 16 13 10 7 5 3 3
3 6 4 4 7 6 9 8 6 5 1 1 4 2 7 6 7 7 8 8 8 9 9 10 10 10 10 11 11 10 9 8 8 10 12 16 18 18 15 10 6 4 3 2
8 2 4 5 5 6 7 5 5 5 5 9 8 1 8 6 6 7 8 9 9 10 10 11 12 12 11 12 12 12 11 8 7 9 11 14 17 15 12 10 5 2 2 4
8 5 4 4 2 4 6 5 3 4 8 7 2 7 4 4 6 10 11 12 12 13 14 14 14 13 14 14 13 14 12 8 7 8 10 12 15 17 17 15 7 1 3 3
6 8 5 4 5 3 2 3 4 4 5 6 7 2 5 5 10 12 13 13 13 13 13 13 13 14 14 14 13 15 12 10 8 8 10 13 14 16 16 15 11 6 4 4
5 5 7 5 2 4 4 3 3 4 5 5 6 2 8 9 10 12 13 13 14 15 15 14 13 14 15 15 14 14 12 11 9 9 10 12 13 14 15 14 12 8 6 5
6 4 6 4 4 3 0 3 4 4 6 5 6 3 10 10 10 11 13 16 17 17 15 15 16 17 16 16 15 14 13 10 9 9 10 12 13 14 14 13 13 11 8 6
7 4 6 1 2 2 1 2 5 5 5 5 6 8 11 17 17 17 19 20 20 17 16 16 16 17 17 17 16 14 13 11 9 10 11 12 13 13 13 13 12 11 9 7
4 4 5 5 6 5 7 9 9 6 5 7 7 13 16 17 18 19 19 19 17 15 16 18 17 17 17 17 16 15 13 11 11 10 10 11 12 12 12 12 11 10 9 8
3 4 6 9 10 9 8 10 9 7 7 7 10 13 14 14 15 17 19 20 18 17 19 19 19 18 18 18 17 16 14 13 12 11 11 11 11 11 11 11 11 10 9 8
1 4 7 7 8 5 9 8 5 4 6 9 12 12 11 13 14 17 20 18 17 18 19 20 19 19 18 18 17 16 14 13 12 11 11 11 11 11 10 10 10 10 10 9
2 3 4 5 9 10 4 6 6 5 7 8 10 8 12 15 18 19 19 14 17 19 18 18 17 16 16 16 16 15 13 12 11 11 10 10 11 11 11 10 9 9 9 8
4 4 2 5 6 4 3 7 6 5 7 8 8 11 13 14 16 16 12 16 18 17 16 15 14 14 14 15 14 13 11 11 10 10 10 9 9 10 10 10 10 9 7 6
3 3 2 2 5 8 6 5 5 6 9 6 9 12 14 17 16 8 13 15 15 14 13 12 12 12 12 13 13 12 10 10 9 10 9 9 9 10 9 9 9 7 7 6
2 3 2 1 2 5 4 3 5 6 6 9 11 12 14 16 15 10 14 14 13 13 12 12 11 11 11 12 12 11 10 10 11 10 9 8 8 9 8 9 8 6 6 6
3 3 3 3 4 5 4 4 7 4 6 10 11 11 12 12 11 14 14 12 12 12 12 12 11 9 9 10 10 10 10 11 12 11 10 8 8 7 7 7 6 6 6 6
2 2 2 2 3 4 5 6 4 6 7 8 8 8 11 13 14 13 13 12 12 12 12 12 10 9 8 9 8 9 10 11 12 11 10 9 8 8 8 7 6 6 6 6
2 1 1 2 3 5 5 5 5 5 7 7 7 9 10 12 12 12 12 11 11 11 11 10 10 9 8 8 7 8 10 12 12 12 11 9 9 7 8 7 6 6 6 5
2 4 1 4 4 5 5 5 6 6 6 7 8 9 9 9 10 11 10 9 10 10 9 9 9 9 9 8 7 7 9 11 11 11 11 10 9 8 8 7 6 4 4 4
2 1 2 4 5 4 4 7 9 7 7 7 9 10 8 8 8 9 8 8 8 9 8 7 8 8 8 9 8 8 9 11 10 10 10 10 9 8 7 7 8 8 4 5
3 3 2 2 4 4 7 8 8 6 6 7 9 9 8 7 8 8 7 6 6 7 7 7 8 8 8 9 9 9 10 10 11 11 10 9 8 8 8 7 8 13 15 17
Wind_Direction
219 312 28 13 14 340 321 307 300 308 71 8 313 332 95 79 69 63 55 47 35 38 36 29 25 20 21 18 10 2 357 351 347 339 332 320 309 306 300 280 272 290 289 285
305 66 14 348 322 304 301 298 317 346 354 331 287 119 100 85 75 65 56 49 37 28 28 26 23 17 21 18 8 357 353 346 343 334 324 307 293 277 276 297 304 298 290 280
34 43 351 327 347 357 323 3 354 320 316 279 258 141 115 102 91 80 66 52 42 28 21 17 16 9 11 14 4 352 343 343 344 338 327 319 310 300 286 272 259 252 259 268
75 30 347 342 32 3 316 3 321 300 306 301 315 241 149 127 99 78 64 49 38 26 16 12 9 3 359 359 350 339 338 344 348 345 338 329 315 300 286 269 245 224 223 242
66 25 5 15 5 331 306 307 283 271 263 274 255 245 167 138 98 68 52 42 29 21 11 4 0 352 343 337 334 331 340 348 348 345 340 331 318 304 294 291 279 247 219 221
107 87 44 354 307 283 296 294 284 255 210 273 259 202 93 84 76 57 41 32 21 12 3 352 346 339 328 329 332 334 339 346 347 345 339 330 321 311 301 290 285 273 245 220
120 119 81 4 341 1 350 338 342 359 266 200 3 307 97 99 78 53 33 23 16 6 355 345 342 338 336 336 336 332 330 335 344 345 338 330 322 314 301 290 285 294 291 264
346 35 61 37 22 325 326 347 11 329 309 316 308 56 119 125 84 50 32 20 8 360 352 346 343 338 336 335 334 331 323 327 346 347 339 332 328 324 313 300 296 324 6 16
347 323 123 96 24 330 346 15 1 286 278 274 270 102 187 171 46 29 18 12 3 356 350 346 343 340 339 338 337 333 326 336 349 351 344 335 336 332 329 325 316 1 56 45
337 299 302 151 182 180 8 324 317 307 311 302 297 358 122 44 23 16 11 5 356 348 345 344 343 342 343 341 339 334 334 339 348 358 351 340 334 332 331 331 334 351 32 52
332 297 300 297 9 34 350 315 315 294 268 273 290 40 88 53 29 14 5 357 349 347 347 346 347 347 344 339 336 330 333 337 351 358 350 340 335 334 334 334 337 345 4 23
6 311 282 304 76 98 319 339 345 309 292 307 303 278 96 57 34 14 360 352 350 348 347 350 350 346 341 337 333 333 335 342 352 357 350 342 338 336 335 336 340 347 356 8
344 304 299 195 140 171 238 325 326 306 292 267 255 273 360 15 12 6 358 351 347 344 348 352 349 343 341 338 337 338 339 345 359 2 354 348 345 340 337 335 338 341 345 348
295 271 262 285 310 332 320 321 324 320 287 284 292 318 347 2 0 355 349 343 341 346 351 349 346 344 343 341 342 342 346 357 1 1 357 352 346 341 339 340 342 342 341 340
307 280 292 298 300 298 302 306 307 300 298 301 321 331 345 1 354 347 340 338 345 349 349 349 348 346 346 347 348 351 355 1 1 360 358 352 345 341 341 342 343 344 346 353
312 288 300 285 279 289 279 282 302 344 346 330 328 325 352 352 347 342 336 343 347 345 347 349 349 349 350 352 352 354 357 358 357 358 357 351 346 344 345 345 349 355 3 11
308 303 312 291 333 322 314 57 43 14 341 332 322 334 352 345 345 337 332 352 346 345 347 350 350 350 352 354 352 351 352 352 355 355 354 350 347 347 348 348 354 0 4 9
301 298 285 299 331 318 44 65 45 352 322 339 358 351 346 345 335 322 350 358 347 346 349 351 351 351 353 350 347 345 348 350 351 350 348 345 346 347 350 354 356 357 357 360
306 322 334 341 315 289 91 46 14 333 308 28 357 345 345 341 324 321 13 356 348 350 352 351 350 351 350 347 341 340 344 345 346 345 344 345 347 345 348 351 350 349 347 350
310 300 287 255 286 286 61 31 336 323 296 17 0 348 345 339 325 331 353 351 352 353 353 352 349 352 351 342 337 339 345 346 344 341 340 343 347 344 346 342 340 344 342 342
212 215 196 242 254 276 63 356 355 337 314 351 352 349 343 330 316 321 338 345 349 351 353 352 348 349 342 332 334 341 346 347 340 337 340 345 345 339 344 336 334 340 340 337
310 298 222 221 252 278 26 7 359 307 329 344 352 350 334 321 321 329 336 341 349 352 352 350 345 340 332 326 334 342 346 341 337 337 341 343 343 344 348 334 335 342 340 341
224 313 325 288 257 349 17 349 331 346 342 351 355 347 335 325 328 332 336 342 351 351 348 345 340 331 326 326 337 345 343 341 340 340 340 339 342 343 339 335 339 350 347 352
139 87 12 302 310 328 333 335 348 2 6 10 3 345 336 331 332 334 336 345 350 345 343 339 332 325 323 327 338 345 343 340 339 339 338 339 340 342 340 341 342 346 345 352
326 129 225 264 285 322 359 353 352 6 16 7 352 339 340 340 335 336 339 348 345 339 335 328 319 318 326 333 339 347 345 340 337 336 337 339 342 337 336 342 340 338 324 327
225 202 232 301 20 347 319 333 357 5 9 7 346 335 345 347 337 342 346 346 338 331 324 319 318 329 335 338 341 347 345 340 339 340 339 340 340 337 339 338 339 342 342 342